TimeMDT,TemperatureF,Dew PointF,Humidity,Sea Level PressureIn,VisibilityMPH,Wind Direction,Wind SpeedMPH,Gust SpeedMPH,PrecipitationIn,Events,Conditions,WindDirDegrees,DateUTC
12:56 AM,57.0,46.9,69,30.05,10.0,NW,8.1,-,N/A,,Clear,310,2013-06-17 06:56:00
1:56 AM,57.0,46.0,67,30.05,10.0,WSW,5.8,-,N/A,,Clear,250,2013-06-17 07:56:00
2:56 AM,51.1,45.0,80,30.05,10.0,NNW,4.6,-,N/A,,Clear,340,2013-06-17 08:56:00
3:56 AM,48.0,45.0,89,30.05,10.0,Calm,Calm,-,N/A,,Clear,0,2013-06-17 09:56:00
4:56 AM,48.0,44.1,86,30.06,10.0,Calm,Calm,-,N/A,,Clear,0,2013-06-17 10:56:00
5:56 AM,50.0,44.1,80,30.06,10.0,Calm,Calm,-,N/A,,Clear,0,2013-06-17 11:56:00
6:56 AM,54.0,48.0,80,30.07,10.0,Calm,Calm,-,N/A,,Clear,0,2013-06-17 12:56:00
7:56 AM,57.9,48.0,70,30.07,10.0,NE,4.6,-,N/A,,Clear,40,2013-06-17 13:56:00
8:56 AM,60.1,48.0,64,30.07,10.0,Calm,Calm,-,N/A,,Clear,0,2013-06-17 14:56:00
9:56 AM,63.0,48.0,58,30.06,10.0,NNW,4.6,-,N/A,,Clear,340,2013-06-17 15:56:00
10:56 AM,66.9,48.0,51,30.03,10.0,Calm,Calm,-,N/A,,Clear,0,2013-06-17 16:56:00
11:56 AM,-9999,-9999,N/A,30.12,10.0,North,-9999.0,-,N/A,,Clear,0,2013-06-17 17:56:00
12:56 PM,75.0,52.0,44,29.99,10.0,North,5.8,-,N/A,,Clear,10,2013-06-17 18:56:00
12:58 PM,75.2,51.8,44,30.09,10.0,North,5.8,-,N/A,,Clear,10,2013-06-17 18:58:00
1:56 PM,73.9,52.0,46,29.97,10.0,North,-9999.0,-,N/A,,Unknown,0,2013-06-17 19:56:00
2:56 PM,78.1,51.1,39,29.95,10.0,East,3.5,-,N/A,,Clear,80,2013-06-17 20:56:00
3:56 PM,81.0,48.9,33,29.92,10.0,ENE,5.8,-,N/A,,Clear,70,2013-06-17 21:56:00
4:56 PM,80.1,39.0,23,29.91,10.0,ESE,4.6,-,N/A,,Clear,110,2013-06-17 22:56:00
5:56 PM,80.1,46.9,31,29.88,10.0,SE,12.7,-,N/A,,Clear,130,2013-06-17 23:56:00
6:56 PM,78.1,50.0,37,29.86,10.0,SE,11.5,17.3,N/A,,Clear,140,2013-06-18 00:56:00
7:56 PM,73.0,52.0,48,29.84,10.0,East,6.9,-,N/A,,Clear,90,2013-06-18 01:56:00
8:56 PM,70.0,48.0,46,29.86,10.0,ESE,3.5,-,N/A,,Clear,110,2013-06-18 02:56:00
9:56 PM,64.9,48.0,54,29.86,10.0,East,4.6,-,N/A,,Clear,100,2013-06-18 03:56:00
10:56 PM,66.9,46.9,49,29.84,10.0,Calm,Calm,-,N/A,,Clear,0,2013-06-18 04:56:00
11:56 PM,63.0,48.9,60,29.95,10.0,West,12.7,-,N/A,,Clear,280,2013-06-18 05:56:00